Printer-friendly version

IAU Minor Planet Center

Minor Planet Center

MPEC 2006-A09 : 2006 AD

The following Minor Planet Electronic Circular may be linked-to from your own Web pages, but must not otherwise be redistributed electronically.


Read MPEC 2006-A08 Read MPEC 2006-A10


M.P.E.C. 2006-A09                                Issued 2006 Jan. 3, 12:32 UT

     The Minor Planet Electronic Circulars contain information on unusual
         minor planets and routine data on comets.  They are published
   on behalf of Commission 20 of the International Astronomical Union by the
          Minor Planet Center, Smithsonian Astrophysical Observatory,
                          Cambridge, MA 02138, U.S.A.

                  Supported in part by the Brinson Foundation
                  Supported in part by the TABASGO Foundation
             Prepared using the Tamkin Foundation Computer Network

                              MPC@CFA.HARVARD.EDU
          URL http://cfa-www.harvard.edu/iau/mpc.html  ISSN 1523-6714

                                    2006 AD

Observations:
     K06A00D* C2006 01 01.57137 03 14 02.90 -60 08 06.9          19.9 V EA009E12
     K06A00D  C2006 01 01.58057 03 14 01.10 -60 07 44.4          19.4 V EA009E12
     K06A00D  C2006 01 01.58980 03 13 59.37 -60 07 22.0          18.4 V EA009E12
     K06A00D  C2006 01 01.59898 03 13 57.61 -60 06 57.7          18.7 V EA009E12
     K06A00D  C2006 01 01.61613 03 13 54.26 -60 06 14.0          17.9 V EA009E12
     K06A00D  C2006 01 01.62648 03 13 52.32 -60 05 47.0          18.4 V EA009E12
     K06A00D  C2006 01 01.63679 03 13 50.30 -60 05 21.6          18.9 V EA009E12
     K06A00D  C2006 01 01.64709 03 13 48.39 -60 04 55.2          19.1 V EA009E12
     K06A00D  C2006 01 02.48341 03 11 15.57 -59 29 49.9          18.4 V EA009E12
     K06A00D  C2006 01 02.48429 03 11 15.28 -59 29 46.6          18.4 V EA009E12
     K06A00D  C2006 01 02.48516 03 11 15.14 -59 29 43.4          18.6 V EA009E12
     K06A00D  C2006 01 02.56808 03 10 59.66 -59 26 10.0          18.6 V EA009E12
     K06A00D  C2006 01 02.57661 03 10 58.15 -59 25 47.4          18.3 V EA009E12
     K06A00D  C2006 01 02.58512 03 10 56.56 -59 25 25.1          18.5 V EA009E12
     K06A00D  C2006 01 02.59362 03 10 55.02 -59 25 02.8          18.4 V EA009E12
     K06A00D  C2006 01 02.60298 03 10 53.32 -59 24 38.7          18.9 V EA009E12
     K06A00D  C2006 01 02.61021 03 10 52.06 -59 24 19.5          19.1 V EA009E12
     K06A00D  C2006 01 02.61740 03 10 50.73 -59 24 00.6          19.3 V EA009E12
     K06A00D  C2006 01 02.62459 03 10 49.54 -59 23 42.3          19.1 V EA009E12

Observer details:
E12 Siding Spring Survey.  Observer R. H. McNaught.  Measurers E. C. Beshore,
    E. J. Christensen, G. J. Garradd, A. D. Grauer, R. E. Hill, R. A. Kowalski,
    S. M. Larson, R. H. McNaught.  0.5-m Uppsala Schmidt + CCD.

Orbital elements:
2006 AD                                                  Earth MOID = 0.2245 AU
Epoch 2005 Dec. 16.0 TT = JDT 2453720.5                 MPC
M 219.25512              (2000.0)            P               Q
n   1.21917942     Peri.  103.01331     -0.36833093     +0.71638164
a   0.8678093      Node   127.95508     -0.81686997     -0.55370808
e   0.5254910      Incl.   48.72151     +0.44390966     -0.42450525
P   0.81           H   16.9           G   0.15
From 19 observations 2006 Jan. 1-2.

Ephemeris:
2006 AD                  a,e,i = 0.87, 0.53, 49                  q = 0.4118
Date    TT    R. A. (2000) Decl.     Delta      r     Elong.  Phase     V
2005 12 26    03 38.33   -64 13.7    0.814    1.244    87.0    52.1    18.8
2006 01 05    03 04.19   -57 38.9    0.768    1.201    85.7    54.7    18.7
2006 01 15    02 44.02   -49 11.8    0.724    1.148    83.0    58.3    18.6
2006 01 25    02 32.73   -39 10.0    0.684    1.085    78.9    62.9    18.5
2006 02 04    02 26.34   -27 47.3    0.652    1.011    73.1    68.8    18.4
2006 02 14    02 21.48   -15 21.4    0.629    0.927    65.7    76.1    18.4

Timothy B. Spahr             (C) Copyright 2006 MPC           M.P.E.C. 2006-A09

Read MPEC 2006-A08 Read MPEC 2006-A10


Our Web policy. Index to the CBAT/MPC/ICQ pages.


Valid HTML 4.01!